EHI
0 0 0 0 0 0 0 0 0 0 0 0 0 0 0 0 0 0 0 0 0 0 0 0 0 0 0 0 0 0 0 0 0 0 0 0 0 0 0 0 0 0 0
0 0 0 0 0 0 0 0 0 0 0 0 0 0 0 0 0 0 0 0 0 0 0 0 0 0 0 0 0 0 0 0 0 0 0 0 0 0 0 0 0 0 0
0 0 0 0 0 0 0 0 0 0 0 0 0 0 0 0 0 0 0 0 0 0 0 0 0 0 0 0 0 0 0 0 0 0 0 0 0 0 0 0 0 0 0
0 0 0 0 0 0 0 0 0 0 0 0 0 0 0 0 0 0 0 0 0 0 0 0 0 0 0 0 0 0 0 0 0 0 0 0 0 0 0 0 0 0 0
0 0 0 0 0 0 0 0 0 0 0 0 0 0 0 0 0 0 0 0 0 0 0 0 0 0 0 0 0 0 0 0 0 0 0 0 0 0 0 0 0 0 0
0 0 0 0 0 0 0 0 0 0 0 0 0 0 0 0 0 0 0 0 0 0 0 0 0 0 0 0 0 0 0 0 0 0 0 0 0 0 0 0 0 0 0
0 0 0 0 0 0 0 0 0 0 0 0 0 0 0 0 0 0 0 0 0 0 0 0 0 0 0 0 0 0 0 0 0 0 0 0 0 0 0 0 0 0 0
0 0 0 0 0 0 0 0 0 0 0 0 0 0 0 0 0 0 0 0 0 0 0 0 0 0 0 0 0 0 0 0 0 0 0 0 0 0 0 0 0 0 0
0 0 0 0 0 0 0 0 0 0 0 0 0 0 0 0 0 0 0 0 0 0 0 0 0 0 0 0 0 0 0 0 0 0 0 0 0 0 0 0 0 0 0
0 0 0 0 0 0 0 0 0 0 0 0 0 0 0 0 0 0 0 0 0 0 0 0 0 0 0 0 0 0 0 0 0 0 0 0 0 0 0 0 0 0 0
0 0 0 0 0 0 0 0 0 0 0 0 0 0 0 0 0 0 0 0 0 0 0 0 0 0 0 0 0 0 0 0 0 0 0 0 0 0 0 0 0 0 0
0 0 0 0 0 0 0 0 0 0 0 0 0 0 0 0 0 0 0 0 0 0 0 0 0 0 0 0 0 0 0 0 0 0 0 0 0 0 0 0 0 0 0
0 0 0 0 0 0 0 0 0 0 0 0 0 0 0 0 0 0 0 0 0 0 0 0 0 0 0 0 0 0 0 0 0 0 0 0 0 0 0 0 0 0 0
0 0 0 0 0 0 0 0 0 0 0 0 0 0 0 0 0 0 0 0 0 0 0 0 0 0 0 0 0 0 0 0 0 0 0 0 0 0 0 0 0 0 0
0 0 0 0 0 0 0 0 0 0 0 0 0 0 0 0 0 0 0 0 0 0 0 0 0 0 0 0 0 0 0 0 0 0 0 0 0 0 0 0 0 0 0
0 0 0 0 0 0 0 0 0 0 0 0 0 0 0 0 0 0 0 0 0 0 0 0 0 0 0 0 0 0 0 0 0 0 0 0 0 0 0 0 0 0 0
0 0 0 0 0 0 0 0 0 0 0 0 0 0 0 0 0 0 0 0 0 0 0 0 0 0 0 0 0 0 0 0 0 0 0 0 0 0 0 0 0 0 0
0 0 0 0 0 0 0 0 0 0 0 0 0 0 0 0 0 0 0 0 0 0 0 0 0 0 0 0 0 0 0 0 0 0 0 0 0 0 0 0 0 0 0
0 0 0 0 0 0 0 0 0 0 0 0 0 0 0 0 0 0 0 0 0 0 0 0 0 0 0 0 0 0 0 0 0 0 0 0 0 0 0 0 0 0 0
0 0 0 0 0 0 0 0 0 0 0 0 0 0 0 0 0 0 0 0 0 0 0 0 0 0 0 0 0 0 0 0 0 0 0 0 0 0 0 0 0 0 0
0 0 0 0 0 0 0 0 0 0 0 0 0 0 0 0 0 0 0 0 0 0 0 0 0 0 0 0 0 0 0 0 0 0 0 0 0 0 0 0 0 0 0
0 0 0 0 0 0 0 0 0 0 0 0 0 0 0 0 0 0 0 0 0 0 0 0 0 0 0 0 0 0 0 0 0 0 0 0 0 0 0 0 0 0 0
0 0 0 0 0 0 0 0 0 0 0 0 0 0 0 0 0 0 0 0 0 0 0 0 0 0 0 0 0 0 0 0 0 0 0 0 0 0 0 0 0 0 0
0 0 0 0 0 0 0 0 0 0 0 0 0 0 0 0 0 0 0 0 0 0 0 0 0 0 0 0 0 0 0 0 0 0 0 0 0 0 0 0 0 0 0
0 0 0 0 0 0 0 0 0 0 0 0 0 0 0 0 0 0 0 0 0 0 0 0 0 0 0 0 0 0 0 0 0 0 0 0 0 0 0 0 0 0 0
0 0 0 0 0 0 0 0 0 0 0 0 0 0 0 0 0 0 0 0 0 0 0 0 0 0 0 0 0 0 0 0 0 0 0 0 0 0 0 0 0 0 0
Wind_Speed
9 11 22 21 20 18 17 16 15 14 13 12 12 11 11 11 11 11 12 12 12 12 13 14 14 14 15 15 15 15 15 16 16 17 18 18 18 18 18 18 16 11 19
14 15 24 23 22 20 18 17 16 15 14 13 12 12 11 11 11 11 11 11 11 11 12 13 13 13 14 14 14 14 15 15 15 16 17 15 15 17 17 17 17 12 18
15 16 20 24 23 21 20 18 17 16 15 14 13 12 12 11 11 10 10 10 10 11 11 12 12 12 13 13 13 14 14 14 15 15 15 9 8 16 16 16 16 17 17
16 14 15 24 23 22 21 19 18 17 16 15 14 13 12 12 11 10 10 10 10 10 10 10 11 11 11 12 12 13 13 13 13 14 8 8 7 13 15 15 15 16 16
15 12 16 26 24 23 22 21 19 18 17 16 15 14 13 12 11 11 10 10 10 9 9 9 10 10 10 10 11 12 12 12 12 10 7 7 6 11 14 14 14 14 15
14 11 15 26 25 23 22 21 20 19 18 17 16 15 14 13 12 11 11 10 9 9 8 8 8 8 9 9 9 10 11 11 8 5 6 7 6 10 12 12 13 13 13
15 12 13 25 25 24 23 22 21 20 19 18 17 16 15 14 13 12 11 10 10 9 8 7 7 7 7 7 8 9 11 10 4 3 5 6 5 11 11 11 11 12 12
16 14 12 25 25 24 23 22 21 20 20 19 18 17 16 15 14 13 12 11 10 9 8 7 6 6 5 6 6 7 9 9 5 1 3 5 5 9 10 10 10 10 11
11 11 10 12 18 23 23 22 22 21 20 19 19 18 17 16 15 14 13 12 11 10 9 7 6 5 4 4 5 6 8 9 4 1 2 4 5 8 8 8 8 9 9
9 10 10 8 9 11 14 21 22 21 21 20 19 18 17 16 16 15 13 13 12 11 10 8 7 6 5 4 4 5 6 7 3 1 1 3 5 6 6 7 7 7 7
11 10 10 9 8 8 8 15 18 20 20 19 16 18 16 7 6 8 11 14 13 12 11 10 9 8 7 5 5 5 5 2 3 2 2 3 3 4 5 5 5 5 6
16 15 12 12 10 8 9 8 6 7 8 8 6 8 6 5 4 6 13 15 15 14 13 12 11 9 5 1 3 4 2 3 3 2 3 3 2 2 3 3 3 4 4
15 15 15 14 11 10 7 5 4 4 4 6 7 7 6 5 4 4 3 6 7 9 5 6 5 2 2 2 2 2 3 3 2 3 3 5 3 3 3 2 3 3 3
11 16 15 14 12 11 9 6 5 5 5 5 7 8 6 4 4 4 3 4 3 2 3 3 2 3 4 4 5 5 5 3 3 3 4 8 6 6 5 5 4 4 4
12 15 14 15 15 13 10 8 8 7 7 6 6 8 9 7 6 5 4 4 4 3 4 4 4 5 5 5 5 6 6 6 5 4 4 9 9 9 8 7 7 6 6
18 17 14 17 17 14 13 11 9 8 7 7 8 9 10 8 7 6 6 6 6 5 5 5 6 5 5 4 6 6 6 6 6 6 5 7 12 12 11 10 10 9 9
18 16 16 16 15 15 15 13 9 8 8 9 9 10 11 10 9 8 7 7 7 6 6 5 6 4 5 5 7 7 6 6 6 7 6 5 6 12 14 13 13 12 11
14 14 17 15 16 16 15 12 9 8 10 10 9 9 13 13 11 9 8 8 7 6 6 6 5 5 6 5 5 6 6 5 7 8 7 6 5 6 10 16 15 15 14
15 14 15 16 16 16 13 10 9 8 10 9 8 9 11 13 12 10 9 8 7 6 7 8 7 5 6 7 6 6 6 6 7 8 9 9 8 7 6 13 18 17 16
11 12 13 15 14 12 9 6 5 7 8 8 9 10 11 11 12 11 8 8 8 6 7 7 7 6 6 5 6 7 6 7 7 9 10 9 9 10 9 9 8 11 18
7 9 12 13 12 10 7 9 10 11 9 8 9 10 11 11 12 12 10 9 9 10 10 10 7 7 7 3 2 5 5 8 12 11 10 9 11 11 9 10 8 7 7
4 7 9 11 11 12 12 10 7 6 5 6 6 8 10 12 12 12 12 10 10 9 10 10 9 6 5 6 5 2 5 6 8 12 11 11 11 8 10 12 9 9 7
2 5 7 9 11 11 10 5 2 2 1 3 6 7 10 12 13 13 14 13 11 12 12 13 12 12 9 7 7 6 5 8 4 4 7 9 9 9 9 8 11 11 10
3 2 3 5 7 8 8 7 9 9 11 11 9 8 9 11 13 14 14 14 14 13 14 14 13 12 11 10 7 9 8 4 3 6 3 4 7 9 9 10 10 11 10
5 3 1 1 3 5 7 9 9 11 12 7 5 7 9 9 12 14 15 14 15 14 15 14 13 14 13 14 10 6 9 8 7 6 10 5 3 5 7 9 8 8 9
6 6 4 2 1 3 6 7 9 12 11 9 9 9 9 8 9 13 14 15 15 14 15 15 15 16 15 15 13 10 8 7 8 10 15 12 7 5 7 8 9 9 9
Wind_Direction
188 183 178 170 168 167 164 161 157 151 147 142 136 130 124 117 110 104 99 94 89 86 83 80 76 74 72 71 70 71 70 67 61 52 45 51 63 62 61 62 56 45 53
166 175 177 172 171 170 167 164 160 156 153 149 143 138 132 126 119 112 106 101 95 90 86 82 79 76 75 74 73 73 72 70 65 56 44 30 48 63 60 57 57 53 53
161 172 175 173 173 172 170 167 164 162 159 155 151 146 140 135 128 121 115 109 102 96 91 86 82 78 76 75 76 76 75 73 66 52 34 12 19 62 60 59 57 55 52
164 172 173 176 175 173 171 169 168 166 164 161 158 153 149 144 139 133 126 118 110 102 96 92 87 81 78 77 78 80 78 75 66 45 19 3 359 60 60 59 58 56 54
167 172 177 177 177 176 174 172 172 171 168 166 164 161 157 153 148 142 135 127 120 112 104 97 92 87 82 80 82 85 83 79 65 31 3 355 347 59 62 58 57 56 54
170 171 181 179 179 178 177 176 175 174 173 171 169 167 164 161 156 150 145 139 133 125 117 108 101 94 87 84 87 93 94 87 63 16 0 349 337 57 61 59 58 56 54
171 173 186 182 182 181 180 179 178 178 177 176 174 173 171 167 163 159 156 152 147 141 132 124 115 105 97 90 91 99 107 105 95 25 354 340 344 58 59 57 55 56 54
170 173 185 186 186 185 184 183 182 182 181 180 179 179 177 174 171 169 167 163 160 154 148 141 131 120 109 100 97 102 111 114 106 55 338 329 26 58 58 55 52 52 52
169 174 188 190 188 188 188 187 186 185 185 185 184 183 182 180 179 178 176 174 171 167 163 159 154 145 134 118 112 112 114 121 123 168 327 319 33 53 55 53 49 48 47
174 182 190 193 187 187 189 192 190 190 190 189 189 188 187 187 187 186 183 183 182 179 177 177 177 178 172 159 144 132 122 116 143 168 295 305 33 44 50 47 43 42 41
187 192 191 193 189 184 186 197 194 194 194 193 193 192 190 186 185 187 185 191 191 191 190 192 194 197 197 199 187 164 132 143 167 199 259 302 26 29 39 39 32 29 30
194 195 194 193 188 182 191 196 191 191 193 187 180 186 168 158 179 181 193 200 201 200 201 203 206 208 201 210 243 190 154 177 180 205 242 267 333 351 11 16 13 5 8
193 192 196 195 188 186 190 186 184 182 181 177 176 170 157 160 183 193 198 212 211 206 201 215 219 193 181 204 224 213 205 199 199 217 240 251 261 285 304 315 322 324 329
190 197 195 193 191 192 189 189 184 184 184 184 183 172 166 172 186 194 200 209 202 186 184 203 211 220 223 224 221 219 216 212 212 215 237 246 251 261 272 278 282 287 294
200 199 196 193 195 192 192 194 194 195 193 186 184 186 182 184 193 197 205 206 203 191 190 200 213 223 229 232 230 224 223 222 222 220 235 248 250 254 260 266 269 272 276
209 204 195 196 197 193 197 200 201 198 193 189 193 195 192 193 193 195 204 207 208 202 199 201 208 216 225 226 232 229 227 226 229 228 226 247 252 253 256 260 262 264 266
211 205 199 198 196 197 200 201 200 197 195 201 201 198 200 199 196 198 204 210 211 204 203 206 214 217 226 228 234 233 230 228 230 231 229 227 244 254 255 256 257 258 260
211 206 203 200 197 201 203 200 201 197 201 206 203 201 205 206 201 201 208 212 204 198 200 206 209 213 225 226 231 234 232 230 232 232 230 228 225 235 250 253 254 255 257
211 205 202 201 201 201 201 199 199 197 204 206 204 207 207 208 205 205 212 211 196 199 206 215 211 206 219 226 232 238 237 236 236 236 233 231 227 225 225 247 251 252 253
209 204 203 203 204 196 189 187 192 204 209 207 208 210 204 206 206 208 213 208 195 203 212 214 217 211 217 219 239 249 241 239 237 236 236 234 229 227 223 227 240 252 252
195 197 200 202 202 188 185 194 201 212 210 210 212 209 206 206 204 206 215 206 202 213 218 213 214 219 225 184 228 277 269 242 240 237 233 232 231 227 220 221 220 222 243
201 205 204 205 199 196 203 204 204 209 212 212 213 213 209 209 207 210 214 213 208 215 219 214 208 216 218 183 186 219 293 293 243 235 228 228 231 224 225 225 220 219 219
258 223 214 210 204 203 201 183 176 165 242 213 216 218 213 210 211 215 216 215 213 213 222 218 210 212 222 208 193 180 207 247 297 262 233 230 225 221 226 225 223 223 219
318 274 235 217 207 202 189 188 195 207 221 223 222 222 216 212 215 216 219 218 218 218 223 220 215 214 214 222 212 219 221 194 232 295 268 237 229 226 223 225 226 223 220
357 1 339 243 217 201 195 202 209 225 235 238 227 228 226 222 221 220 219 220 223 223 225 223 218 214 215 223 216 206 225 233 225 245 273 271 257 237 225 223 224 224 221
9 18 24 18 286 219 208 212 219 231 239 243 238 235 235 232 228 225 223 224 226 226 226 224 222 220 221 223 223 215 205 210 211 217 245 255 248 232 224 221 222 224 224